Weather History for KGLS - November, 2013

Change the Weather History Date:

Sunday, November 24, 2013

  Actual Average Record
Temperature  
Mean Temperature 48 °F 62 °F  
Max Temperature 51 °F 69 °F 82 °F (1967)
Min Temperature 44 °F 56 °F 33 °F (1970)
Degree Days  
Heating Degree Days 17 5  
Month to date heating degree days 79 61  
Since 1 July heating degree days 79 70  
Cooling Degree Days 0 2  
Month to date cooling degree days 66 88  
Year to date cooling degree days 3311 3280  
Moisture  
Dew Point 36 °F    
Average Humidity 69    
Maximum Humidity 86    
Minimum Humidity 52    
Precipitation  
Precipitation 0.00 in 0.14 in 4.49 in (1914)
Month to date precipitation 0.61 3.61  
Year to date precipitation 36.75 46.34  
Snow  
Snow 0.00 in - 0.00 in (2002)
Month to date snowfall 0.0  
Since 1 July snowfall 0.0  
Since 1 September snowfall 0.0  
Snow Depth 0.00 in    
Sea Level Pressure  
Sea Level Pressure 30.34 in    
Wind  
Wind Speed 18 mph (NNE)    
Max Wind Speed 29 mph    
Max Gust Speed 35 mph    
Visibility 10 miles    
Events      
T = Trace of Precipitation, MM = Missing Value Source: NWS Daily Summary

Daily Weather History Graph

Daily Weather History Graph

Search for Another Location

Airport or City:

Trip Planner

Search our weather history database for the weather conditions in past years. The results will help you decide how hot, cold, wet, or windy it might be!

Date:

Astronomy

Nov. 24, 2013 Rise Set
Actual Time 6:50 AM CST 5:21 PM CST
Civil Twilight 6:25 AM CST 5:47 PM CST
Nautical Twilight 5:56 AM CST 6:16 PM CST
Astronomical Twilight 5:27 AM CST 6:44 PM CST
Moon 11:33 PM CST (11/24) 11:52 AM CST (11/24)
Length of Visible Light 11h 21m
Length of Day
10h 30m
Waning Gibbous, 60% of the Moon is Illuminated
Nov 24
Waning Gibbous
Nov 25
Last Quarter
Dec 2
New
Dec 9
First Quarter
Dec 17
Full

Hourly Weather History & Observations

Time (CST) Temp. Windchill Dew Point Humidity Pressure Visibility Wind Dir Wind Speed Gust Speed Precip Events Conditions
12:52 AM 46.9 °F - 42.1 °F 83% 30.34 in 10.0 mi NNE 20.7 mph 31.1 mph N/A   Overcast
1:52 AM 46.9 °F - 39.9 °F 77% 30.34 in 10.0 mi NNE 24.2 mph 34.5 mph N/A   Overcast
2:52 AM 46.9 °F - 39.9 °F 77% 30.34 in 10.0 mi NNE 23.0 mph 28.8 mph N/A   Overcast
3:52 AM 46.0 °F 37.8 °F 37.9 °F 73% 30.34 in 10.0 mi NNE 23.0 mph 31.1 mph N/A   Overcast
4:52 AM 45.0 °F 36.2 °F 36.0 °F 71% 30.35 in 10.0 mi NNE 24.2 mph 31.1 mph N/A   Overcast
5:52 AM 45.0 °F 36.2 °F 36.0 °F 71% 30.35 in 10.0 mi NNE 24.2 mph 31.1 mph N/A   Overcast
6:52 AM 44.1 °F 35.0 °F 36.0 °F 73% 30.38 in 10.0 mi NNE 24.2 mph - N/A   Overcast
7:52 AM 44.1 °F 34.8 °F 35.1 °F 71% 30.38 in 10.0 mi NNE 25.3 mph - N/A   Overcast
8:52 AM 44.1 °F 35.7 °F 34.0 °F 68% 30.41 in 10.0 mi NNE 20.7 mph - N/A   Overcast
9:52 AM 45.0 °F 37.1 °F 34.0 °F 65% 30.40 in 10.0 mi NNE 19.6 mph - N/A   Overcast
10:52 AM 46.9 °F - 35.1 °F 63% 30.37 in 10.0 mi NNE 18.4 mph - N/A   Overcast
11:52 AM 48.0 °F - 34.0 °F 58% 30.35 in 10.0 mi NNE 19.6 mph 26.5 mph N/A   Overcast
12:52 PM 48.9 °F - 36.0 °F 61% 30.35 in 10.0 mi North 13.8 mph - N/A   Overcast
1:52 PM 50.0 °F - 34.0 °F 54% 30.33 in 10.0 mi NNE 10.4 mph - N/A   Overcast
2:52 PM 50.0 °F - 35.1 °F 57% 30.32 in 10.0 mi North 11.5 mph - N/A   Overcast
3:52 PM 50.0 °F - 35.1 °F 57% 30.32 in 10.0 mi North 10.4 mph - N/A   Overcast
4:52 PM 50.0 °F - 35.1 °F 57% 30.31 in 10.0 mi North 11.5 mph - N/A   Overcast
5:52 PM 50.0 °F - 35.1 °F 57% 30.32 in 10.0 mi North 13.8 mph - N/A   Overcast
6:52 PM 48.9 °F - 34.0 °F 56% 30.34 in 10.0 mi North 17.3 mph - N/A   Overcast
7:52 PM 48.9 °F - 35.1 °F 59% 30.33 in 10.0 mi NNE 13.8 mph - N/A   Overcast
8:52 PM 48.0 °F - 35.1 °F 61% 30.32 in 10.0 mi NNE 15.0 mph - N/A   Overcast
9:52 PM 46.9 °F - 35.1 °F 63% 30.32 in 10.0 mi NNE 16.1 mph - N/A   Overcast
10:52 PM 46.9 °F - 35.1 °F 63% 30.30 in 10.0 mi NNE 16.1 mph - N/A   Overcast
11:52 PM 46.9 °F - 37.0 °F 68% 30.29 in 10.0 mi NNE 13.8 mph - N/A   Overcast